map of LVI home
LVI - Airport
Location
City:  Livingstone, Southern, Zambia
Near (Alt.):Maramba
Name:Harry Mwanga Nkumbula International Airport
Old (Alt.):Livingstone Airport
ICAO:FLHN
IATA:LVI

Details
Type:Airport (Aerodrome, Airfield)
Use:Public/Civil, Military, International (customs port of entry)
Latitude:1749'18"S (-17.821755)
Longitude:2549'22"E (25.822692)
Elevation:3302 ft (1006 m)
Variation:7.27W (WMM2015v2 magnetic declination)
0.01 annual change
Runways:2
Longest:7520 × 197 ft (2292 × 60 m), paved

Time
Time Zone:UTC+2
Local Time:

Weather
METAR:FLHN 041300Z VRB03KT 9999 TS FEW050CB SCT050 34/13 Q1012 TEMPO TS

Related Locations
Nearby:
Farthest:ITO: 12290 mi / 19779 km
Hilo [Hilo Intl], Hawaii, HI, US

Find:

   beyond  
but within

Other Information
Maps:
NOTAMs:
Links:
Sources:

  
  • flag of Zambia
  

Sectional Chart

Flight Planning
at skyvector.com

Satellite Image

Google Maps Satellite view

 

Copyright © 2004-2019 Karl L. Swartz. All rights reserved.
The Great Circle Mapper name and logo are trademarks of the Great Circle Mapper.
All other trademarks mentioned herein belong to their respective owners.
Please see credits for attibutions and further copyright information.

  Follow gcmap on Facebook Follow gcmap on Twitter GCmap on LinkedIn

hCard Microformat

Geo Microformat